,,,PA_Meas_PMT16A,,PR_Meas_QMR101_102,,RH_Meas_QMH101,,SR_Meas_QMS101,,TA_Meas_QMH101,,GenWind,,GenWind,
date,time,status,PA,status,PR,status,RH,status,SR,status,TA,status,DirAvg,status,SpdAvg,
2009-07-04, 00:00:04,VALID,1010.33,VALID,0,VALID,91.265,VALID,0,VALID,23.5363,VALID,80,VALID,1.70547,
2009-07-04, 00:01:04,VALID,1010.3,VALID,0,VALID,91.2498,VALID,0,VALID,23.4797,VALID,92,VALID,1.9543,
2009-07-04, 00:02:04,VALID,1010.27,VALID,0,VALID,91.2269,VALID,0,VALID,23.4212,VALID,90,VALID,1.17773,
2009-07-04, 00:03:04,VALID,1010.25,VALID,0,VALID,91.2269,VALID,0,VALID,23.4212,VALID,86,VALID,1.0375,
2009-07-04, 00:04:04,VALID,1010.23,VALID,0,VALID,91.2421,VALID,0,VALID,23.3415,VALID,85,VALID,0.890234,
2009-07-04, 00:05:04,VALID,1010.16,VALID,0,VALID,91.2193,VALID,0,VALID,23.3238,VALID,68,VALID,0.600781,
2009-07-04, 00:06:04,VALID,1010.16,VALID,0,VALID,91.2269,VALID,0,VALID,23.3043,VALID,59,VALID,0.591406,
2009-07-04, 00:07:04,VALID,1010.17,VALID,0,VALID,91.2269,VALID,0,VALID,23.3026,VALID,42,VALID,0.373828,
2009-07-04, 00:08:04,VALID,1010.14,VALID,0,VALID,91.2421,VALID,0,VALID,23.3043,VALID,42,VALID,0,
2009-07-04, 00:09:04,VALID,1010.12,VALID,0,VALID,91.2421,VALID,0,VALID,23.3043,VALID,42,VALID,0,
2009-07-04, 00:10:04,VALID,1010.09,VALID,0,VALID,91.2345,VALID,0,VALID,23.2831,VALID,42,VALID,0,
2009-07-04, 00:11:04,VALID,1010.04,VALID,0,VALID,91.2421,VALID,0,VALID,23.3043,VALID,42,VALID,0,
2009-07-04, 00:12:04,VALID,1010,VALID,0,VALID,91.2498,VALID,0,VALID,23.2848,VALID,42,VALID,0,
2009-07-04, 00:13:04,VALID,1009.99,VALID,0,VALID,91.2421,VALID,0,VALID,23.2848,VALID,42,VALID,0,
2009-07-04, 00:14:04,VALID,1009.97,VALID,0,VALID,91.2193,VALID,0,VALID,23.2848,VALID,42,VALID,0,
2009-07-04, 00:15:04,VALID,1009.94,VALID,0,VALID,91.2269,VALID,0,VALID,23.2848,VALID,42,VALID,0,
2009-07-04, 00:16:04,VALID,1009.95,VALID,0,VALID,91.2193,VALID,0,VALID,23.2848,VALID,42,VALID,0,
2009-07-04, 00:17:04,VALID,1009.88,VALID,0,VALID,91.2193,VALID,0,VALID,23.2459,VALID,42,VALID,0,
2009-07-04, 00:18:04,VALID,1009.91,VALID,0,VALID,91.2498,VALID,0,VALID,23.2459,VALID,42,VALID,0,
2009-07-04, 00:19:04,VALID,1009.89,VALID,0,VALID,91.2498,VALID,0,VALID,23.2246,VALID,42,VALID,0,
2009-07-04, 00:20:04,VALID,1009.88,VALID,0,VALID,91.2421,VALID,0,VALID,23.2069,VALID,42,VALID,0,
2009-07-04, 00:21:04,VALID,1009.86,VALID,0,VALID,91.2269,VALID,0,VALID,23.2264,VALID,42,VALID,0,
2009-07-04, 00:22:04,VALID,1009.85,VALID,0,VALID,91.2421,VALID,0,VALID,23.2051,VALID,42,VALID,0,
2009-07-04, 00:23:04,VALID,1009.85,VALID,0,VALID,91.2498,VALID,0,VALID,23.2069,VALID,42,VALID,0,
2009-07-04, 00:24:04,VALID,1009.83,VALID,0,VALID,91.2345,VALID,0,VALID,23.2264,VALID,41,VALID,0,
2009-07-04, 00:25:04,VALID,1009.83,VALID,0,VALID,91.2498,VALID,0,VALID,23.2069,VALID,41,VALID,0,
2009-07-04, 00:26:04,VALID,1009.85,VALID,0,VALID,91.2574,VALID,0,VALID,23.2069,VALID,39,VALID,0,
2009-07-04, 00:27:04,VALID,1009.83,VALID,0,VALID,91.2726,VALID,0,VALID,23.2069,VALID,39,VALID,0,
2009-07-04, 00:28:04,VALID,1009.82,VALID,0,VALID,91.2803,VALID,0,VALID,23.1662,VALID,39,VALID,0,
2009-07-04, 00:29:04,VALID,1009.8,VALID,0,VALID,91.2498,VALID,0,VALID,23.1874,VALID,39,VALID,0,
2009-07-04, 00:30:04,VALID,1009.81,VALID,0,VALID,91.2726,VALID,0,VALID,23.1874,VALID,39,VALID,0,
2009-07-04, 00:31:04,VALID,1009.78,VALID,0,VALID,91.2574,VALID,0,VALID,23.2069,VALID,39,VALID,0,
2009-07-04, 00:32:04,VALID,1009.78,VALID,0,VALID,91.2803,VALID,0,VALID,23.1874,VALID,39,VALID,0,
2009-07-04, 00:33:04,VALID,1009.77,VALID,0,VALID,91.2726,VALID,0,VALID,23.1874,VALID,41,VALID,0,
2009-07-04, 00:34:05,VALID,1009.76,VALID,0,VALID,91.2803,VALID,0,VALID,23.1662,VALID,69,VALID,0.633203,
2009-07-04, 00:35:05,VALID,1009.74,VALID,0,VALID,91.2726,VALID,0,VALID,23.2069,VALID,71,VALID,0.863281,
2009-07-04, 00:36:05,VALID,1009.73,VALID,0,VALID,91.2955,VALID,0,VALID,23.1467,VALID,74,VALID,1.03125,
2009-07-04, 00:37:05,VALID,1009.73,VALID,0,VALID,91.2955,VALID,0,VALID,23.1679,VALID,45,VALID,0.776563,
2009-07-04, 00:38:05,VALID,1009.69,VALID,0,VALID,91.2955,VALID,0,VALID,23.1485,VALID,62,VALID,0.815234,
2009-07-04, 00:39:05,VALID,1009.69,VALID,0,VALID,91.2955,VALID,0,VALID,23.1485,VALID,38,VALID,0.421875,
2009-07-04, 00:40:05,VALID,1009.67,VALID,0,VALID,91.2879,VALID,0,VALID,23.1679,VALID,62,VALID,0.345313,
2009-07-04, 00:41:05,VALID,1009.69,VALID,0,VALID,91.2879,VALID,0,VALID,23.1679,VALID,18,VALID,0.326953,
2009-07-04, 00:42:05,VALID,1009.7,VALID,0,VALID,91.2879,VALID,0,VALID,23.1485,VALID,47,VALID,0.28125,
2009-07-04, 00:43:05,VALID,1009.71,VALID,0,VALID,91.2879,VALID,0,VALID,23.1485,VALID,47,VALID,0.379687,
2009-07-04, 00:44:05,VALID,1009.7,VALID,0,VALID,91.2955,VALID,0,VALID,23.129,VALID,81,VALID,0.964063,
2009-07-04, 00:45:05,VALID,1009.7,VALID,0,VALID,91.2955,VALID,0,VALID,23.0883,VALID,72,VALID,0.603516,
2009-07-04, 00:46:05,VALID,1009.7,VALID,0,VALID,91.3108,VALID,0,VALID,23.1095,VALID,68,VALID,0.788281,
2009-07-04, 00:47:05,VALID,1009.7,VALID,0,VALID,91.3108,VALID,0,VALID,23.1095,VALID,72,VALID,0.682813,
2009-07-04, 00:48:05,VALID,1009.7,VALID,0,VALID,91.2803,VALID,0,VALID,23.1485,VALID,67,VALID,0.609766,
2009-07-04, 00:49:05,VALID,1009.7,VALID,0,VALID,91.3031,VALID,0,VALID,23.09,VALID,51,VALID,0.964453,
2009-07-04, 00:50:05,VALID,1009.72,VALID,0,VALID,91.2955,VALID,0,VALID,23.0705,VALID,63,VALID,0.683203,
2009-07-04, 00:51:05,VALID,1009.74,VALID,0,VALID,91.3184,VALID,0,VALID,23.0705,VALID,76,VALID,1.1043,
2009-07-04, 00:52:05,VALID,1009.7,VALID,0,VALID,91.3336,VALID,0,VALID,23.0511,VALID,84,VALID,1.24844,
2009-07-04, 00:53:05,VALID,1009.7,VALID,0,VALID,91.326,VALID,0,VALID,23.0705,VALID,81,VALID,0.804688,
2009-07-04, 00:54:05,VALID,1009.69,VALID,0,VALID,91.3184,VALID,0,VALID,23.0511,VALID,80,VALID,0.46875,
2009-07-04, 00:55:05,VALID,1009.67,VALID,0,VALID,91.3184,VALID,0,VALID,23.0511,VALID,76,VALID,0.382422,
2009-07-04, 00:56:05,VALID,1009.65,VALID,0,VALID,91.3336,VALID,0,VALID,23.0511,VALID,45,VALID,0.583984,
2009-07-04, 00:57:05,VALID,1009.58,VALID,0,VALID,91.326,VALID,0,VALID,23.0528,VALID,64,VALID,0.517969,
2009-07-04, 00:58:05,VALID,1009.57,VALID,0,VALID,91.326,VALID,0,VALID,23.0121,VALID,44,VALID,0.537891,
2009-07-04, 00:59:05,VALID,1009.55,VALID,0,VALID,91.3336,VALID,0,VALID,22.9714,VALID,23,VALID,0.788281,
2009-07-04, 01:00:05,VALID,1009.54,VALID,0,VALID,91.326,VALID,0,VALID,22.9714,VALID,13,VALID,0.508984,
2009-07-04, 01:01:05,VALID,1009.56,VALID,0,VALID,91.3489,VALID,0,VALID,22.9926,VALID,57,VALID,0.408594,
2009-07-04, 01:02:05,VALID,1009.55,VALID,0,VALID,91.3489,VALID,0,VALID,22.9714,VALID,40,VALID,0.3125,
2009-07-04, 01:03:05,VALID,1009.56,VALID,0,VALID,91.3336,VALID,0,VALID,22.9926,VALID,40,VALID,0.279687,
2009-07-04, 01:04:05,VALID,1009.56,VALID,0,VALID,91.3413,VALID,0,VALID,22.9731,VALID,72,VALID,0.324609,
2009-07-04, 01:05:05,VALID,1009.55,VALID,0,VALID,91.3413,VALID,0,VALID,22.9731,VALID,63,VALID,0.307813,
2009-07-04, 01:06:05,VALID,1009.57,VALID,0,VALID,91.3642,VALID,0,VALID,22.9324,VALID,63,VALID,0,
2009-07-04, 01:07:05,VALID,1009.57,VALID,0,VALID,91.326,VALID,0,VALID,22.9536,VALID,63,VALID,0,
2009-07-04, 01:08:05,VALID,1009.57,VALID,0,VALID,91.3489,VALID,0,VALID,22.9731,VALID,63,VALID,0,
2009-07-04, 01:09:05,VALID,1009.58,VALID,0,VALID,91.3642,VALID,0,VALID,22.9731,VALID,63,VALID,0,
2009-07-04, 01:10:05,VALID,1009.58,VALID,0,VALID,91.3489,VALID,0,VALID,22.9536,VALID,63,VALID,0,
2009-07-04, 01:11:05,VALID,1009.61,VALID,0,VALID,91.3642,VALID,0,VALID,22.9342,VALID,63,VALID,0,
2009-07-04, 01:12:05,VALID,1009.61,VALID,0,VALID,91.3489,VALID,0,VALID,22.9147,VALID,63,VALID,0,
2009-07-04, 01:13:05,VALID,1009.62,VALID,0,VALID,91.3642,VALID,0,VALID,22.9147,VALID,63,VALID,0,
2009-07-04, 01:14:05,VALID,1009.6,VALID,0,VALID,91.3642,VALID,0,VALID,22.8952,VALID,63,VALID,0,
2009-07-04, 01:15:05,VALID,1009.62,VALID,0,VALID,91.3718,VALID,0,VALID,22.9129,VALID,63,VALID,0,
2009-07-04, 01:16:05,VALID,1009.64,VALID,0,VALID,91.3718,VALID,0.105969,VALID,22.874,VALID,63,VALID,0,
2009-07-04, 01:17:05,VALID,1009.6,VALID,0,VALID,91.3642,VALID,0.105969,VALID,22.8935,VALID,63,VALID,0,
2009-07-04, 01:18:05,VALID,1009.59,VALID,0,VALID,91.3642,VALID,0,VALID,22.8528,VALID,68,VALID,0,
2009-07-04, 01:19:05,VALID,1009.58,VALID,0,VALID,91.3718,VALID,0,VALID,22.874,VALID,68,VALID,0,
2009-07-04, 01:20:05,VALID,1009.56,VALID,0,VALID,91.3718,VALID,0.105969,VALID,22.8935,VALID,68,VALID,0,
2009-07-04, 01:21:05,VALID,1009.56,VALID,0,VALID,91.3947,VALID,0.105969,VALID,22.8545,VALID,68,VALID,0,
2009-07-04, 01:22:05,VALID,1009.54,VALID,0,VALID,91.3947,VALID,0.105969,VALID,22.8545,VALID,68,VALID,0,
2009-07-04, 01:23:05,VALID,1009.55,VALID,0,VALID,91.4099,VALID,0,VALID,22.835,VALID,105,VALID,0,
2009-07-04, 01:24:05,VALID,1009.55,VALID,0,VALID,91.4023,VALID,0,VALID,22.835,VALID,105,VALID,0,
2009-07-04, 01:25:05,VALID,1009.52,VALID,0,VALID,91.3947,VALID,0,VALID,22.835,VALID,105,VALID,0,
2009-07-04, 01:26:05,VALID,1009.51,VALID,0,VALID,91.387,VALID,0.105969,VALID,22.8155,VALID,105,VALID,0,
2009-07-04, 01:27:05,VALID,1009.52,VALID,0,VALID,91.4099,VALID,0,VALID,22.8155,VALID,105,VALID,0,
2009-07-04, 01:28:05,VALID,1009.52,VALID,0,VALID,91.4023,VALID,0,VALID,22.8155,VALID,105,VALID,0,
2009-07-04, 01:29:05,VALID,1009.5,VALID,0,VALID,91.4023,VALID,0,VALID,22.7961,VALID,105,VALID,0,
2009-07-04, 01:30:05,VALID,1009.54,VALID,0,VALID,91.4099,VALID,0,VALID,22.7961,VALID,105,VALID,0,
2009-07-04, 01:31:05,VALID,1009.51,VALID,0,VALID,91.387,VALID,0,VALID,22.7961,VALID,105,VALID,0,
2009-07-04, 01:32:05,VALID,1009.55,VALID,0,VALID,91.4175,VALID,0,VALID,22.7766,VALID,105,VALID,0,
2009-07-04, 01:33:05,VALID,1009.53,VALID,0,VALID,91.4175,VALID,0,VALID,22.7961,VALID,105,VALID,0,
2009-07-04, 01:34:05,VALID,1009.55,VALID,0,VALID,91.4252,VALID,0,VALID,22.7766,VALID,105,VALID,0,
2009-07-04, 01:35:05,VALID,1009.56,VALID,0,VALID,91.4252,VALID,0.105969,VALID,22.7766,VALID,105,VALID,0,
2009-07-04, 01:36:05,VALID,1009.6,VALID,0,VALID,91.4252,VALID,0.105969,VALID,22.7571,VALID,105,VALID,0,
2009-07-04, 01:37:05,VALID,1009.65,VALID,0,VALID,91.4557,VALID,0,VALID,22.7571,VALID,105,VALID,0,
2009-07-04, 01:38:05,VALID,1009.63,VALID,0,VALID,91.448,VALID,0.105969,VALID,22.7376,VALID,75,VALID,0,
2009-07-04, 01:39:05,VALID,1009.64,VALID,0,VALID,91.4404,VALID,0.105969,VALID,22.7376,VALID,75,VALID,0,
2009-07-04, 01:40:05,VALID,1009.65,VALID,0,VALID,91.4328,VALID,0.105969,VALID,22.7376,VALID,75,VALID,0,
2009-07-04, 01:41:05,VALID,1009.66,VALID,0,VALID,91.4252,VALID,0.105969,VALID,22.7182,VALID,75,VALID,0,
2009-07-04, 01:42:05,VALID,1009.65,VALID,0,VALID,91.4328,VALID,0.105969,VALID,22.7182,VALID,75,VALID,0.214453,
2009-07-04, 01:43:05,VALID,1009.71,VALID,0,VALID,91.448,VALID,0,VALID,22.7199,VALID,75,VALID,0.360156,
2009-07-04, 01:44:05,VALID,1009.68,VALID,0,VALID,91.448,VALID,0,VALID,22.6792,VALID,82,VALID,0.705859,
2009-07-04, 01:45:05,VALID,1009.69,VALID,0,VALID,91.4633,VALID,0,VALID,22.6792,VALID,91,VALID,0.626953,
2009-07-04, 01:46:05,VALID,1009.7,VALID,0,VALID,91.4557,VALID,0,VALID,22.6597,VALID,83,VALID,0.726172,
2009-07-04, 01:47:05,VALID,1009.71,VALID,0,VALID,91.4557,VALID,0,VALID,22.6597,VALID,83,VALID,0.571875,
2009-07-04, 01:48:05,VALID,1009.7,VALID,0,VALID,91.4557,VALID,0,VALID,22.6402,VALID,82,VALID,0.596484,
2009-07-04, 01:49:05,VALID,1009.73,VALID,0,VALID,91.448,VALID,0.105969,VALID,22.6402,VALID,84,VALID,1.03164,
2009-07-04, 01:50:05,VALID,1009.74,VALID,0,VALID,91.4709,VALID,0.105969,VALID,22.6402,VALID,95,VALID,0.598828,
2009-07-04, 01:51:05,VALID,1009.73,VALID,0,VALID,91.4709,VALID,0.105969,VALID,22.5996,VALID,91,VALID,0.807422,
2009-07-04, 01:52:05,VALID,1009.75,VALID,0,VALID,91.4709,VALID,0,VALID,22.6013,VALID,99,VALID,0.642578,
2009-07-04, 01:53:05,VALID,1009.73,VALID,0,VALID,91.4862,VALID,0.105969,VALID,22.6013,VALID,90,VALID,0.950781,
2009-07-04, 01:54:05,VALID,1009.7,VALID,0,VALID,91.4938,VALID,0,VALID,22.5818,VALID,103,VALID,0.917969,
2009-07-04, 01:55:05,VALID,1009.71,VALID,0,VALID,91.4938,VALID,0,VALID,22.5818,VALID,89,VALID,0.666016,
2009-07-04, 01:56:05,VALID,1009.68,VALID,0,VALID,91.4785,VALID,0,VALID,22.5818,VALID,88,VALID,0.591406,
2009-07-04, 01:57:05,VALID,1009.65,VALID,0,VALID,91.5014,VALID,0,VALID,22.5623,VALID,94,VALID,0.480469,
2009-07-04, 01:58:05,VALID,1009.64,VALID,0,VALID,91.4709,VALID,0,VALID,22.5818,VALID,87,VALID,1.04297,
2009-07-04, 01:59:05,VALID,1009.64,VALID,0,VALID,91.4938,VALID,0,VALID,22.5818,VALID,90,VALID,0.734375,
2009-07-04, 02:00:05,VALID,1009.63,VALID,0,VALID,91.4938,VALID,0,VALID,22.5835,VALID,97,VALID,0.416797,
2009-07-04, 02:01:05,VALID,1009.62,VALID,0,VALID,91.5014,VALID,0,VALID,22.603,VALID,98,VALID,0.303516,
2009-07-04, 02:02:05,VALID,1009.6,VALID,0,VALID,91.4938,VALID,0,VALID,22.5835,VALID,97,VALID,0.535937,
2009-07-04, 02:03:05,VALID,1009.61,VALID,0,VALID,91.4938,VALID,0,VALID,22.5835,VALID,97,VALID,0.567578,
2009-07-04, 02:04:05,VALID,1009.61,VALID,0,VALID,91.5014,VALID,0,VALID,22.5835,VALID,79,VALID,0.547656,
2009-07-04, 02:05:05,VALID,1009.64,VALID,0,VALID,91.509,VALID,0,VALID,22.5835,VALID,96,VALID,0.819922,
2009-07-04, 02:06:05,VALID,1009.61,VALID,0,VALID,91.5014,VALID,0,VALID,22.5835,VALID,90,VALID,0.961328,
2009-07-04, 02:07:05,VALID,1009.59,VALID,0,VALID,91.5167,VALID,0,VALID,22.5835,VALID,77,VALID,0.839063,
2009-07-04, 02:08:05,VALID,1009.57,VALID,0,VALID,91.5167,VALID,0,VALID,22.5835,VALID,70,VALID,1.09063,
2009-07-04, 02:09:05,VALID,1009.59,VALID,0,VALID,91.5014,VALID,0,VALID,22.564,VALID,92,VALID,0.554297,
2009-07-04, 02:10:05,VALID,1009.57,VALID,0,VALID,91.5014,VALID,0,VALID,22.5446,VALID,84,VALID,0.633984,
2009-07-04, 02:11:05,VALID,1009.53,VALID,0,VALID,91.509,VALID,0,VALID,22.5446,VALID,89,VALID,0.655469,
2009-07-04, 02:12:05,VALID,1009.5,VALID,0,VALID,91.5167,VALID,0,VALID,22.5446,VALID,69,VALID,0.91875,
2009-07-04, 02:13:05,VALID,1009.47,VALID,0,VALID,91.509,VALID,0,VALID,22.5251,VALID,78,VALID,0.541406,
2009-07-04, 02:14:05,VALID,1009.48,VALID,0,VALID,91.5243,VALID,0,VALID,22.5251,VALID,79,VALID,0.247266,
2009-07-04, 02:15:05,VALID,1009.48,VALID,0,VALID,91.5167,VALID,0,VALID,22.5234,VALID,79,VALID,0.499219,
2009-07-04, 02:16:05,VALID,1009.47,VALID,0,VALID,91.5167,VALID,0,VALID,22.5039,VALID,79,VALID,0.346875,
2009-07-04, 02:17:05,VALID,1009.49,VALID,0,VALID,91.5395,VALID,0,VALID,22.5039,VALID,79,VALID,0.315625,
2009-07-04, 02:18:05,VALID,1009.49,VALID,0,VALID,91.509,VALID,0,VALID,22.5039,VALID,93,VALID,0.155859,
2009-07-04, 02:19:05,VALID,1009.52,VALID,0,VALID,91.5319,VALID,0.105969,VALID,22.4844,VALID,125,VALID,0.467187,
2009-07-04, 02:20:05,VALID,1009.49,VALID,0,VALID,91.5167,VALID,0,VALID,22.5039,VALID,125,VALID,0.544531,
2009-07-04, 02:21:05,VALID,1009.5,VALID,0,VALID,91.5243,VALID,0.105969,VALID,22.5039,VALID,125,VALID,0.313281,
2009-07-04, 02:22:05,VALID,1009.49,VALID,0,VALID,91.5243,VALID,0,VALID,22.5056,VALID,125,VALID,0.233203,
2009-07-04, 02:23:05,VALID,1009.5,VALID,0,VALID,91.5395,VALID,0.105969,VALID,22.4844,VALID,125,VALID,0.0960938,
2009-07-04, 02:24:05,VALID,1009.52,VALID,0,VALID,91.5243,VALID,0,VALID,22.4861,VALID,126,VALID,0.312891,
2009-07-04, 02:25:05,VALID,1009.53,VALID,0,VALID,91.5243,VALID,0.105969,VALID,22.465,VALID,143,VALID,0.389062,
2009-07-04, 02:26:05,VALID,1009.54,VALID,0,VALID,91.5243,VALID,0,VALID,22.4455,VALID,143,VALID,0.329688,
2009-07-04, 02:27:05,VALID,1009.54,VALID,0,VALID,91.5395,VALID,0.105969,VALID,22.426,VALID,156,VALID,0.510156,
2009-07-04, 02:28:05,VALID,1009.5,VALID,0,VALID,91.5472,VALID,0.105969,VALID,22.4065,VALID,156,VALID,0.350391,
2009-07-04, 02:29:05,VALID,1009.49,VALID,0,VALID,91.5395,VALID,0.105969,VALID,22.4065,VALID,156,VALID,0.293359,
2009-07-04, 02:30:05,VALID,1009.45,VALID,0,VALID,91.5319,VALID,0,VALID,22.387,VALID,156,VALID,0.202734,
2009-07-04, 02:31:05,VALID,1009.49,VALID,0,VALID,91.5395,VALID,0,VALID,22.4082,VALID,156,VALID,0.339844,
2009-07-04, 02:32:05,VALID,1009.48,VALID,0,VALID,91.5548,VALID,0,VALID,22.4082,VALID,156,VALID,0.203906,
2009-07-04, 02:33:05,VALID,1009.47,VALID,0,VALID,91.5319,VALID,0,VALID,22.3676,VALID,156,VALID,0.199219,
2009-07-04, 02:34:05,VALID,1009.45,VALID,0,VALID,91.5319,VALID,0,VALID,22.4082,VALID,156,VALID,0.280078,
2009-07-04, 02:35:05,VALID,1009.46,VALID,0,VALID,91.57,VALID,0,VALID,22.3676,VALID,156,VALID,0.442969,
2009-07-04, 02:36:05,VALID,1009.42,VALID,0,VALID,91.5395,VALID,0,VALID,22.387,VALID,156,VALID,0.173047,
2009-07-04, 02:37:05,VALID,1009.42,VALID,0,VALID,91.5472,VALID,0,VALID,22.4082,VALID,156,VALID,0.178906,
2009-07-04, 02:38:05,VALID,1009.39,VALID,0,VALID,91.5548,VALID,0,VALID,22.4082,VALID,156,VALID,0.181641,
2009-07-04, 02:39:05,VALID,1009.38,VALID,0,VALID,91.57,VALID,0,VALID,22.4277,VALID,156,VALID,0.346484,
2009-07-04, 02:40:05,VALID,1009.38,VALID,0,VALID,91.5472,VALID,0,VALID,22.4277,VALID,156,VALID,0.337891,
2009-07-04, 02:41:05,VALID,1009.39,VALID,0,VALID,91.5472,VALID,0,VALID,22.4065,VALID,161,VALID,0.283984,
2009-07-04, 02:42:05,VALID,1009.35,VALID,0,VALID,91.5548,VALID,0,VALID,22.426,VALID,163,VALID,0.266797,
2009-07-04, 02:43:05,VALID,1009.34,VALID,0,VALID,91.5624,VALID,0,VALID,22.4472,VALID,163,VALID,0.3,
2009-07-04, 02:44:05,VALID,1009.35,VALID,0,VALID,91.5472,VALID,0,VALID,22.426,VALID,163,VALID,0.0121094,
2009-07-04, 02:45:05,VALID,1009.34,VALID,0,VALID,91.5624,VALID,0,VALID,22.4277,VALID,163,VALID,0,
2009-07-04, 02:46:05,VALID,1009.36,VALID,0,VALID,91.5777,VALID,0,VALID,22.4082,VALID,163,VALID,0,
2009-07-04, 02:47:05,VALID,1009.36,VALID,0,VALID,91.57,VALID,0,VALID,22.4065,VALID,163,VALID,0,
2009-07-04, 02:48:05,VALID,1009.36,VALID,0,VALID,91.5929,VALID,0,VALID,22.4082,VALID,163,VALID,0,
2009-07-04, 02:49:05,VALID,1009.38,VALID,0,VALID,91.5777,VALID,0,VALID,22.4082,VALID,163,VALID,0,
2009-07-04, 02:50:05,VALID,1009.4,VALID,0,VALID,91.57,VALID,0,VALID,22.387,VALID,163,VALID,0,
2009-07-04, 02:51:05,VALID,1009.37,VALID,0,VALID,91.57,VALID,0,VALID,22.4082,VALID,163,VALID,0,
2009-07-04, 02:52:05,VALID,1009.35,VALID,0,VALID,91.57,VALID,0,VALID,22.4082,VALID,162,VALID,0.378906,
2009-07-04, 02:53:05,VALID,1009.34,VALID,0,VALID,91.5853,VALID,0,VALID,22.4277,VALID,162,VALID,0.142188,
2009-07-04, 02:54:05,VALID,1009.32,VALID,0,VALID,91.5853,VALID,0,VALID,22.4277,VALID,162,VALID,0.273438,
2009-07-04, 02:55:05,VALID,1009.31,VALID,0,VALID,91.5853,VALID,0,VALID,22.4065,VALID,162,VALID,0.267969,
2009-07-04, 02:56:05,VALID,1009.28,VALID,0,VALID,91.5548,VALID,0,VALID,22.4277,VALID,162,VALID,0.278516,
2009-07-04, 02:57:05,VALID,1009.29,VALID,0,VALID,91.5777,VALID,0,VALID,22.4277,VALID,160,VALID,0.321875,
2009-07-04, 02:58:05,VALID,1009.29,VALID,0,VALID,91.5853,VALID,0,VALID,22.426,VALID,135,VALID,0.423047,
2009-07-04, 02:59:05,VALID,1009.28,VALID,0,VALID,91.5929,VALID,0,VALID,22.426,VALID,116,VALID,0.346875,
2009-07-04, 03:00:05,VALID,1009.3,VALID,0,VALID,91.5777,VALID,0.105969,VALID,22.426,VALID,116,VALID,0.333984,
2009-07-04, 03:01:05,VALID,1009.31,VALID,0,VALID,91.5853,VALID,0,VALID,22.4455,VALID,116,VALID,0.184375,
2009-07-04, 03:02:05,VALID,1009.32,VALID,0,VALID,91.5853,VALID,0,VALID,22.4472,VALID,116,VALID,0.289063,
2009-07-04, 03:03:05,VALID,1009.34,VALID,0,VALID,91.5853,VALID,0,VALID,22.4455,VALID,116,VALID,0,
2009-07-04, 03:04:05,VALID,1009.36,VALID,0,VALID,91.6082,VALID,0,VALID,22.4455,VALID,116,VALID,0,
2009-07-04, 03:05:05,VALID,1009.32,VALID,0,VALID,91.6082,VALID,0,VALID,22.4667,VALID,95,VALID,0,
2009-07-04, 03:06:05,VALID,1009.32,VALID,0,VALID,91.6005,VALID,0,VALID,22.4472,VALID,95,VALID,0,
2009-07-04, 03:07:05,VALID,1009.32,VALID,0,VALID,91.6005,VALID,0,VALID,22.4667,VALID,91,VALID,0,
2009-07-04, 03:08:05,VALID,1009.32,VALID,0,VALID,91.6082,VALID,0,VALID,22.4277,VALID,45,VALID,0,
2009-07-04, 03:09:05,VALID,1009.32,VALID,0,VALID,91.6158,VALID,0,VALID,22.3887,VALID,45,VALID,0,
2009-07-04, 03:10:05,VALID,1009.3,VALID,0,VALID,91.6234,VALID,0,VALID,22.4082,VALID,45,VALID,0,
2009-07-04, 03:11:05,VALID,1009.31,VALID,0,VALID,91.6082,VALID,0,VALID,22.4082,VALID,45,VALID,0,
2009-07-04, 03:12:05,VALID,1009.29,VALID,0,VALID,91.6082,VALID,0,VALID,22.3887,VALID,45,VALID,0,
2009-07-04, 03:13:05,VALID,1009.3,VALID,0,VALID,91.6158,VALID,0,VALID,22.3693,VALID,45,VALID,0,
2009-07-04, 03:14:05,VALID,1009.26,VALID,0,VALID,91.6234,VALID,0,VALID,22.3481,VALID,45,VALID,0,
2009-07-04, 03:15:05,VALID,1009.29,VALID,0,VALID,91.6234,VALID,0,VALID,22.3286,VALID,45,VALID,0,
2009-07-04, 03:16:05,VALID,1009.29,VALID,0,VALID,91.6539,VALID,0,VALID,22.3286,VALID,45,VALID,0,
2009-07-04, 03:17:05,VALID,1009.29,VALID,0,VALID,91.6387,VALID,0,VALID,22.3303,VALID,45,VALID,0,
2009-07-04, 03:18:05,VALID,1009.29,VALID,0,VALID,91.6463,VALID,0,VALID,22.2914,VALID,45,VALID,0,
2009-07-04, 03:19:04,VALID,1009.24,VALID,0,VALID,91.6387,VALID,0,VALID,22.2719,VALID,45,VALID,0,
2009-07-04, 03:20:04,VALID,1009.28,VALID,0,VALID,91.6463,VALID,0,VALID,22.2719,VALID,45,VALID,0,
2009-07-04, 03:21:04,VALID,1009.27,VALID,0,VALID,91.6463,VALID,0,VALID,22.2524,VALID,45,VALID,0,
2009-07-04, 03:22:04,VALID,1009.25,VALID,0,VALID,91.6539,VALID,0,VALID,22.2524,VALID,45,VALID,0,
2009-07-04, 03:23:04,VALID,1009.26,VALID,0,VALID,91.6539,VALID,0,VALID,22.2524,VALID,45,VALID,0,
2009-07-04, 03:24:04,VALID,1009.25,VALID,0,VALID,91.6616,VALID,0,VALID,22.2329,VALID,45,VALID,0,
2009-07-04, 03:25:04,VALID,1009.23,VALID,0,VALID,91.6539,VALID,0,VALID,22.2329,VALID,45,VALID,0,
2009-07-04, 03:26:04,VALID,1009.22,VALID,0,VALID,91.6463,VALID,0,VALID,22.2329,VALID,45,VALID,0,
2009-07-04, 03:27:04,VALID,1009.26,VALID,0,VALID,91.6539,VALID,0,VALID,22.2118,VALID,45,VALID,0,
2009-07-04, 03:28:04,VALID,1009.24,VALID,0,VALID,91.6539,VALID,0,VALID,22.2329,VALID,45,VALID,0,
2009-07-04, 03:29:04,VALID,1009.23,VALID,0,VALID,91.6616,VALID,0,VALID,22.2134,VALID,45,VALID,0,
2009-07-04, 03:30:04,VALID,1009.25,VALID,0,VALID,91.6539,VALID,0,VALID,22.2134,VALID,45,VALID,0,
2009-07-04, 03:31:04,VALID,1009.26,VALID,0,VALID,91.6616,VALID,0,VALID,22.2134,VALID,45,VALID,0,
2009-07-04, 03:32:04,VALID,1009.27,VALID,0,VALID,91.6539,VALID,0,VALID,22.194,VALID,45,VALID,0,
2009-07-04, 03:33:04,VALID,1009.23,VALID,0,VALID,91.6768,VALID,0,VALID,22.194,VALID,45,VALID,0,
2009-07-04, 03:34:04,VALID,1009.22,VALID,0,VALID,91.6768,VALID,0,VALID,22.194,VALID,45,VALID,0,
2009-07-04, 03:35:04,VALID,1009.19,VALID,0,VALID,91.6844,VALID,0,VALID,22.1728,VALID,62,VALID,0.367578,
2009-07-04, 03:36:04,VALID,1009.18,VALID,0,VALID,91.6768,VALID,0,VALID,22.2134,VALID,62,VALID,0.00195313,
2009-07-04, 03:37:04,VALID,1009.17,VALID,0,VALID,91.6692,VALID,0,VALID,22.194,VALID,62,VALID,0.0570313,
2009-07-04, 03:38:04,VALID,1009.18,VALID,0,VALID,91.6692,VALID,0,VALID,22.2134,VALID,62,VALID,0,
2009-07-04, 03:39:04,VALID,1009.14,VALID,0,VALID,91.6997,VALID,0,VALID,22.194,VALID,62,VALID,0,
2009-07-04, 03:40:04,VALID,1009.16,VALID,0,VALID,91.6921,VALID,0,VALID,22.1728,VALID,62,VALID,0.158594,
2009-07-04, 03:41:04,VALID,1009.17,VALID,0,VALID,91.6921,VALID,0,VALID,22.194,VALID,62,VALID,0,
2009-07-04, 03:42:04,VALID,1009.11,VALID,0,VALID,91.6997,VALID,0,VALID,22.2346,VALID,64,VALID,0.403516,
2009-07-04, 03:43:04,VALID,1009.16,VALID,0,VALID,91.6844,VALID,0,VALID,22.194,VALID,65,VALID,0.363672,
2009-07-04, 03:44:04,VALID,1009.13,VALID,0,VALID,91.7149,VALID,0,VALID,22.194,VALID,65,VALID,0.402734,
2009-07-04, 03:45:04,VALID,1009.13,VALID,0,VALID,91.6921,VALID,0,VALID,22.2134,VALID,77,VALID,0.715625,
2009-07-04, 03:46:04,VALID,1009.13,VALID,0,VALID,91.7149,VALID,0,VALID,22.1923,VALID,86,VALID,0.273438,
2009-07-04, 03:47:04,VALID,1009.12,VALID,0,VALID,91.7149,VALID,0,VALID,22.1923,VALID,89,VALID,0.534766,
2009-07-04, 03:48:04,VALID,1009.16,VALID,0,VALID,91.7149,VALID,0,VALID,22.2134,VALID,89,VALID,0.237891,
2009-07-04, 03:49:04,VALID,1009.15,VALID,0,VALID,91.7073,VALID,0,VALID,22.2118,VALID,85,VALID,0.470313,
2009-07-04, 03:50:04,VALID,1009.19,VALID,0,VALID,91.7149,VALID,0,VALID,22.2524,VALID,85,VALID,0.318359,
2009-07-04, 03:51:04,VALID,1009.21,VALID,0,VALID,91.6921,VALID,0,VALID,22.2312,VALID,85,VALID,0.240625,